FREGAT DEB, 45878

Orbit data source: Space-Track

FREGAT DEB, 45878 is space debris in LEO originally from a launch on Mon, 18 Jul 2011 UTC launched from the Tyuratam Missile And Space Complex (TTMTR). Debris objects in space refer to the collection of defunct objects orbiting the Earth. Examples of debris include non-operational satellites, rocket bodies, and fragments generated from explosions, collisions, or faulty payload assembly.

Loading next visibility...
Identifier
45878, 2011-037CX
Orbit
LEO
Country
Flag of CISCIS
Related business
Manufacturer
Lavochkin
Mission
Spacecraft
Bus & Motor
Unknown
Mass
Unknown
Launch date (UTC)
2011-07-18 (15 years ago)
Launch vehicle
Unknown
Launch site
Tyuratam Missile And Space Complex (TTMTR)
Object type
Payload
Rocket body
Debris
Shape & HBR
Unknown shape, 0.1 m
Radar Cross Section
Small (<0.1 m²)

Expand to show TLE details & history
Last TLE update: 2 days ago

TLE from 2 days ago
0 FREGAT DEB
1 45878U 11037CX  26032.51977281  .00029999  00000-0  41459-2 0  9990
2 45878  51.4268 121.2700 1262535   2.2231 358.3585 12.66534126237710
Epoch: 2026-02-01T12:28Z
TLE epoch observation values (Epoch: 2026-02-01T12:28:28.370Z)
Latitude
-0.00007°
Longitude
162.42349°
Altitude
415.755 km
Speed
8.131 km/s
True Right ascension
08h 05m 04s
True Declination
0° 00' 00"
Sunlit
Object was in full shadow at epoch
Visualization orbit readout
Latitude
Unknown
Longitude
Unknown
Altitude
Unknown
Speed
Unknown
Apparent Right ascension
Unknown
Apparent Declination
Unknown
Sunlit
N/A
Visualization observer readout
Local Sidereal Time
08:28:37
Azimuth
Unknown
Elevation
Unknown
Doppler factor
Unknown
Orbital elements
Apogee altitude
2,378.163 km
Perigee altitude
414.993 km
Semi-major axis
7,774.715 km
Eccentricity
0.12625
Inclination
51.4268°
RAAN
121.27°
Arg. of periapsis
2.2231°
True anomaly
357.86716°
Mean anomaly
358.3585°
Eccentric anomaly
358.12136°
Mean motion
3.16604 °/min
Orbital period
113.71 mins
BSTAR
0.0041459
Loading maneuver chart data...
Computing Atmospheric mass density...
Loading historical data...
Loading historical data...
Loading historical data...
Loading historical data...
Loading historical data...
Loading historical data...
Loading historical data...

Documentation

Showing up to 5 results
|